FENGYUN 1C DEB

Satellite information

Favourite Embed

Satellite Type and Status

DEBRISIN ORBIT

Key statistics

Satellite FENGYUN 1C DEB at a glance.

Uptime

9659

Days in orbit

Revolutions

≈ 14.3

Per day

Orbit

SSO

Sun Synchronous Orbit

Inclination

98.5

Latest

Satellite identification and parameters

Extended collection of information and parameters for FENGYUN 1C DEB.

Object identification

Identified? True

Debris? True

Object name: FENGYUN 1C DEB

International designator: 1999-025BAF

Object number (NORAD): 30941

Object ID (CCSDS): 30941

Country: PEOPLES REPUBLIC OF CHINA (PRC)

Current information (Y/N): Y

RCS size: SMALL

Orbital parameters

Period: 100.679 minutes

Inclination: 98.5464 deg

SMA: 7168.92 km

Apoapsis: 814.866 km

Periapsis: 766.704 km

RAAN: 146.6551 deg

Eccentricy: 0.00335909

Argument of periapsis: 122.0713 deg

Mean anomaly: 238.3739 deg

Mean motion: 14.30283576 rev/day

Mean motion (dot): 0.00005292 rev/day2

B* drag term: 0.0020427706 1/REarth

Two-line elements (TLE)

Creation date: Oct. 16, 2025, 2:37 a.m.

Reference frame: TEME

Reference center: EARTH

Epoch: Oct. 15, 2025, 8:30 p.m. UTC

TLE line 0: 0 FENGYUN 1C DEB

TLE line 1: 1 30941U 99025BAF 25288.85445502 .00005292 00000-0 20428-2 0 9996

TLE line 2: 2 30941 98.5464 146.6551 0033591 122.0713 238.3739 14.30283576957982

Live tracking on map

Real-time ground track for satellite FENGYUN 1C DEB.

In-orbit conjunctions

A list of the most updated potential collisions computed for object FENGYUN 1C DEB.

Target Orbit TCA Probability of collision Miss distance Type
IRIDIUM 4 LEO 2025-09-28 23:00:17 0.0001547504 696.0 (m) PAYLOAD
FEDSAT SSO 2025-05-30 02:48:44 0.0004511201 182.0 (m) PAYLOAD
TIROS N SSO 2024-10-06 14:08:57 0.0001570039 237.0 (m) PAYLOAD
CZ-6A DEB LEO 2024-09-28 04:18:35 0.0002116385 802.0 (m) DEBRIS
FENGYUN 1C DEB SSO 2024-09-27 06:24:53 0.0001199965 624.0 (m) DEBRIS

Associated space launch

Chinese polar orbiting meteorological satellite

FENGYUN 1C DEB was lifted into orbit during the mission ‘Long March 4B | Feng Yun 1C’, on board a Long March 4B space rocket.

The launch took place on May 10, 1999, 1:33 a.m. from Launch Complex 7.

For more information about the launch, click the button.

Launch to space Long March 4B | Feng Yun 1C
Long March 4B | Feng Yun 1C

Agency: N/A

Status: Launch Successful

Launch date: May 10, 1999, 1:33 a.m. UTC

Rocket: Long March 4B

Launch pad: Launch Complex 7

Location: Taiyuan Satellite Launch Center, People's Republic of China

...

Latest news about this satellite

There are no fresh news available about this satellite. Check back as we update our databases every day.


Newsletter sign-up

Weekly statistics, charts and insights to help you stay on top of the space industry.